Location: Unspecified
(22.6800°N, 112.2000°E)
Time: 03:58:25
(UTC+08:00)

S-56A Canister/Altair - Pass Details

Date: 24 July 2021
Orbit: 632 x 2500 km, 38.9° (Epoch: 27 September)

Event Time Altitude Azimuth Distance (km) Brightness Sun altitude
Rises 15:21:52 0° 222° (SW) 5,413 12.2 51.8°
Reaches altitude 10° 15:25:08 10° 219° (SW) 4,609 11.9 51.0°
Maximum altitude 15:38:37 67° 139° (SE) 2,606 10.7 47.9°
Drops below altitude 10° 15:53:29 10° 61° (ENE) 5,039 11.4 44.5°
Sets 15:57:13 0° 59° (ENE) 5,927 11.7 43.6°
